Weather in Saryozek

Kazakhstan     44°21′10″N   77°58′01″E
temp.,
°C
wind,
m/s
gust,
m/s
humid.,
%
clouds,
%
prec.,
mm/h
press.,
hPa
HPBL,
m
13 april, tue
tue1300:00+11se11460 0.0 101912
03:00+10sse33360 0.0 101930
06:00+9sse22320 0.0 102016
09:00+14s12230 0.0 1020411
12:00+17w33250 0.0 10201918
15:00+18nnw54260 0.0 10192219
18:00+15n66360 0.0 10201137
21:00+11n35460 0.0 102390
14 april, wed
wed1400:00+9ne22460 0.0 102214
03:00+7ne225132 0.0 102214
06:00+6ene125456 0.0 102211
09:00+13se233967 0.0 1021490
12:00+18ese352279 0.0 10191774
15:00+20ene442126 0.0 10172157
18:00+17n543592 0.0 1017632
21:00+12ne22475 0.0 101819
15 april, thu
thu1500:00+11ne2243100 0.0 101714
03:00+10ene2238100 0.0 101612
06:00+9ene223667 0.0 101610
09:00+16ene24249 0.0 1015447
12:00+20nne22150 0.0 10142053
15:00+21n531815 0.0 10132236
18:00+18n542957 0.0 1013675
21:00+13ne22420 0.0 101417
16 april, fri
fri1600:00+12ene214114 0.0 101211
03:00+11ese113498 0.0 101111
06:00+10e112981 0.0 101111
09:00+17ese1221100 0.0 1011321
12:00+21sw121721 0.0 10101568
15:00+22wnw4318100 0.0 10092352
18:00+19nw4530100 0.0 10101210
21:00+15nw2341100 0.0 101455
17 april, sat
sat1700:00+13sw4754100 0.0 1015308
03:00+11se116291 0.0 101411
06:00+10s115969 0.0 101310
09:00+15w2347100 0.1 1014487
12:00+16sw4546100 0.2 10141192
15:00+19w563291 0.0 10122020
18:00+17wnw4428100 0.0 10111695
21:00+13nne2240100 0.0 101311